Content
SEND FEEDBACK

France Flag

ROUEN, FRANCE


Home > Europe > France
Elevation: 515 feet     Latitude: 49 23N     Longitude: 001 11E

WEATHER
 
SELECT A DAY
Number of Records: 216,302;   Date Range: 7/1/96 - 3/22/16
 
SHARE

PRINT THIS DATA

[ ← Previous Day ]
WEATHER ALMANAC - SEPTEMBER 29, 2013
[ Next Day → ]
[ °C ]   °F
Weather ElementAverageHighLow
Temperature60.6 °F66.2 °F (4:00 pm)55.4 °F (6:00 am)
Dewpoint57.9 °F60.8 °F (5:30 pm)53.6 °F (6:00 am)
Humidity90.8 %100 % (8:00 am)78 % (2:00 pm)
Barometer29.65 in29.68 in (12:30 am)29.62 in (3:00 am)
Wind Speed4.2 mph9.2 mph (1:30 am)
Weather ElementAverage
Visibility3.9 mi
Wind DirectionENE (69.4 °)

Weather ElementTotal
Precipitation---
Heating Degree Days4.2 (Base 65)
Growing Degree Days10.8 (Base 50)
Averaged from 51 records on September 29, 2013
WEATHER CONDITIONS BREAKOUT
WIND DIRECTION BREAKOUT
WEATHER BY HOUR - SEPTEMBER 29, 2013
[ °C ]   °F
Local TimeTemperatureDewpointHumidityBarometerVisibilityWind DirectionWind SpeedGust SpeedPrecipitationEventsConditions
12:30 AM59.0 °F55.4 °F88 %29.68 in6.2 miEast (100°)5.8 mph
1:00 AM57.2 °F55.4 °F94 %29.68 in5.6 miEast (80°)6.9 mph
1:30 AM59.0 °F57.2 °F94 %29.65 in6.2 miEast (80°)9.2 mph
2:00 AM59.0 °F56.0 °F88 %29.67 in7.0 miEast (80°)8.1 mphClear
2:00 AM59.0 °F57.2 °F94 %29.65 in6.2 miEast (80°)8.1 mph
2:30 AM59.0 °F57.2 °F94 %29.65 in6.2 miENE (70°)6.9 mph
3:00 AM59.0 °F55.4 °F88 %29.62 in5.6 miNE (50°)8.1 mph
3:30 AM57.2 °F55.4 °F94 %29.65 in4.3 miVariable3.5 mph
4:00 AM57.2 °F55.4 °F94 %29.62 in3.7 miENE (70°)5.8 mph
4:30 AM57.2 °F55.4 °F94 %29.65 inEast (80°)6.9 mphPartly Cloudy
5:00 AM57.2 °F55.4 °F94 %29.65 inEast (80°)4.6 mphMostly Cloudy
5:30 AM57.2 °F55.4 °F94 %29.62 inENE (70°)4.6 mphMostly Cloudy
6:00 AM55.4 °F53.6 °F94 %29.62 inENE (60°)5.8 mphPartly Cloudy
6:30 AM55.4 °F53.6 °F94 %29.62 in1.3 miENE (60°)5.8 mphMist
7:00 AM55.4 °F53.6 °F94 %29.62 inENE (70°)4.6 mphMostly Cloudy
7:30 AM57.2 °F55.4 °F94 %29.62 inNNE (30°)5.8 mphMostly Cloudy
8:00 AM56.0 °F55.0 °F95 %29.64 in2.0 miNE (40°)6.9 mphMist
8:00 AM55.4 °F55.4 °F100 %29.62 inNE (40°)5.8 mphPartly Cloudy
8:30 AM57.2 °F55.4 °F94 %29.62 in1.7 miVariable2.3 mphMostly Cloudy
9:00 AM57.2 °F57.2 °F100 %29.65 inENE (70°)3.5 mphOvercast
9:30 AM59.0 °F57.2 °F94 %29.62 inVariable3.5 mphOvercast
10:00 AM59.0 °F57.2 °F94 %29.62 in3.1 miENE (60°)5.8 mphOvercast
10:30 AM60.8 °F59.0 °F94 %29.62 in3.1 miEast (90°)4.6 mphOvercast
11:00 AM60.8 °F57.2 °F88 %29.65 in3.7 miENE (70°)3.5 mphOvercast
11:30 AM62.6 °F57.2 °F82 %29.65 in3.7 miVariable3.5 mphOvercast
12:00 PM62.6 °F59.0 °F88 %29.65 in4.3 miVariable3.5 mphOvercast
12:30 PM62.6 °F59.0 °F88 %29.65 in3.7 miEast (90°)4.6 mphOvercast
1:00 PM62.6 °F59.0 °F88 %29.65 in4.3 miVariable2.3 mphOvercast
1:30 PM62.6 °F59.0 °F88 %29.65 in3.7 miVariable1.2 mphOvercast
2:00 PM64.0 °F59.0 °F78 %29.65 in4.0 miSSW (200°)2.3 mphMostly Cloudy
2:00 PM64.4 °F59.0 °F83 %29.65 in5.0 miVariable2.3 mphMostly Cloudy
2:30 PM64.4 °F59.0 °F83 %29.65 in5.0 miCalmOvercast
3:00 PM64.4 °F59.0 °F83 %29.65 in5.0 miVariable2.3 mphOvercast
3:30 PM64.4 °F59.0 °F83 %29.65 in5.6 miVariable3.5 mphOvercast
4:00 PM66.2 °F59.0 °F78 %29.65 in5.0 miCalmOvercast
4:30 PM64.4 °F59.0 °F83 %29.65 in5.0 miNE (50°)2.3 mphOvercast
5:00 PM64.4 °F59.0 °F83 %29.65 in5.0 miCalmOvercast
5:30 PM64.4 °F60.8 °F88 %29.65 in3.7 miCalmRainLight Rain
6:00 PM64.4 °F60.8 °F88 %29.65 in4.3 miCalmRainLight Rain
6:30 PM64.4 °F60.8 °F88 %29.65 in3.1 miWNW (290°)2.3 mphOvercast
7:00 PM62.6 °F60.8 °F94 %29.65 in3.1 miNW (310°)3.5 mphMostly Cloudy
7:30 PM62.6 °F60.8 °F94 %29.65 in0.7 miNW (320°)2.3 mphMostly Cloudy
8:00 PM63.0 °F60.0 °F86 %29.66 in3.0 miNorth (350°)2.3 mphMist
8:00 PM62.6 °F60.8 °F94 %29.65 in3.1 miVariable2.3 mphMostly Cloudy
8:30 PM62.6 °F59.0 °F88 %29.65 in3.7 miNorth (360°)4.6 mphMostly Cloudy
9:00 PM62.6 °F59.0 °F88 %29.65 in3.1 miNorth (10°)4.6 mphMostly Cloudy
9:30 PM62.6 °F60.8 °F94 %29.68 inNorth (10°)4.6 mphRainRain
10:00 PM62.6 °F60.8 °F94 %29.68 in1.4 miNorth (10°)4.6 mphRainRain
10:30 PM60.8 °F60.8 °F100 %29.68 in1.5 miNorth (10°)4.6 mphRainLight Rain
11:00 PM60.8 °F60.8 °F100 %29.68 in1.5 miNE (40°)5.8 mphMostly Cloudy
11:30 PM60.8 °F60.8 °F100 %29.68 in3.1 miENE (60°)6.9 mphMostly Cloudy
Hourly data recorded from LFOP, located miles away from Rouen, France




STORIES FROM OUR PARTNERS